Airfield :
LOGIN :

Register | Disclaimer

   EN    FR    IT 

 










Legend :    VFR   Marginal VFR   IFR   Intensive IFR   Very Intensive IFR
Visi :
Ceiling :
>= 8 km
>= 3000ft
5 to 8 km
1000 to 3000 ft
1500m to 5 km
500 to 1000 ft
800 to 1500m
200 to 500 ft
< 800m
< 200 ft
Symbols :   Thunderstorms  Fog  Heavy snow  Heavy precipitations  Wind > 20 kt
SIGMETs :     Misc.  Thunderstorms  Icing  Turbulence  Mountain Waves  Volcanic Ashes







- Airport Elevation : 38 ft
- IATA code : BOH
- Download approach charts


EGHH - Bournemouth

CURRENT METAR :
  • 170820Z 08010KT 9999 FEW008 BKN011 08/06 Q1025

EXPIRED METARs :
  • 170750Z 07010KT 040V110 9999 FEW003 BKN010 08/07 Q1025
  • 170720Z 08010KT 040V110 7000 FEW003 BKN009 08/07 Q1024
  • 170650Z 09008KT 9000 BKN003 08/08 Q1024
  • 170620Z 08009KT 7000 OVC003 08/08 Q1024
  • 170550Z 09008KT 7000 OVC002 08/08 Q1024

TAF TAF EGHH
Valid from the 17 at 09:00 until the 17 at 18:00 UTC


170807Z 1709/1718 10008KT 9999 BKN010
BECMG 1709/1711 FEW015
ATIS : +44 1202 364 151
Met : +44 1202 364 158 (TAF)
No reported NOTAMs for that airfield.



MET'MAP, your aeronautical weather chart ! - Copyright ORBIFLY December 2007 - Disclaimer

ORBIFLY MET'MAP TEAM :

Programming & Development : Alexandra Zaïnal
Concept & Development : Baudouin d'Aumeries
Co-Development & Prog : Marc-Olivier Méhu
Technical & hardware support : Manuel Goepfert

Contact : metmap@orbifly.com




SOURCES & CREDITS :

   NOAA